Location: Winthrop
(48.4780°N, 120.1850°W)
Time: 02:41:35
(UTC-07:00)

Transit 2A - Pass Details

Date: 15 June 2024
Orbit: 591 x 960 km, 66.7° (Epoch: 23 July)

Event Time Altitude Azimuth Distance (km) Brightness Sun altitude
Rises 00:54:39 0° 326° (NW) 3,430 10.3 -18.2°
Reaches altitude 10° 00:57:19 10° 336° (NNW) 2,545 9.7 -18.2°
Maximum altitude 01:02:41 33° 40° (NE) 1,497 8.0 -18.2°
Drops below altitude 10° 01:08:19 10° 103° (ESE) 2,678 8.7 -18.2°
Sets 01:11:11 0° 113° (ESE) 3,634 9.3 -18.2°
